SR1WXW Weather Reports


time (UTC)temp
C
wind
direction
speed
KPH
gust
KPH
rain 1hr
cm
rain 24hr
cm
rain mn
cm
humidity
%
barometer
mb
20260902021607 11 202 1.6 3.2 0.00 0.81 0.00 90 1012.0
20260902021107 11 202 1.6 1.6 0.00 0.81 0.00 90 1011.9
20260902020607 11 202 1.6 3.2 0.00 0.81 0.00 90 1012.0
20260902020107 11 202 1.6 1.6 0.00 0.81 0.00 90 1012.0
20260902015607 11 202 0.0 3.2 0.00 0.81 0.00 90 1012.0
20260902015107 11 202 0.0 3.2 0.00 0.81 0.00 90 1012.1
20260902014607 11 180 0.0 3.2 0.00 0.81 0.00 90 1012.1
20260902014107 11 202 1.6 1.6 0.00 0.81 0.00 90 1012.0
20260902013607 11 202 0.0 1.6 0.00 0.81 0.00 90 1012.0
20260902013107 12 202 0.0 1.6 0.00 0.81 0.00 90 1012.0
20260902012607 12 180 0.0 1.6 0.00 0.81 0.00 90 1012.0
20260902012107 12 202 0.0 1.6 0.00 0.81 0.00 90 1011.9
20260902011607 12 202 0.0 3.2 0.00 0.81 0.00 90 1012.0
20260902011107 12 202 1.6 3.2 0.00 0.81 0.00 90 1012.0
20260902010607 12 225 0.0 1.6 0.00 0.81 0.00 90 1011.9
20260902010107 12 225 0.0 1.6 0.00 1.07 0.00 90 1012.0
20260902005607 12 225 0.0 3.2 0.00 1.07 0.00 90 1011.9
20260902005107 12 225 1.6 1.6 0.00 1.07 0.00 90 1011.9
20260902004607 12 225 0.0 1.6 0.00 1.07 0.00 90 1011.9
20260902004107 12 202 0.0 0.0 0.00 1.07 0.00 90 1011.8
20260902003607 12 225 0.0 0.0 0.00 1.07 0.00 90 1011.9
20260902003107 12 225 0.0 4.8 0.00 1.07 0.00 90 1011.9
20260902002607 12 247 0.0 0.0 0.00 1.07 0.00 90 1012.0
20260902002107 12 225 0.0 0.0 0.00 1.07 0.00 90 1011.9
20260902001607 12 225 0.0 0.0 0.00 1.07 0.00 90 1011.7
20260902001107 12 225 0.0 1.6 0.00 1.07 0.00 90 1011.8
20260902000607 12 225 0.0 0.0 0.00 1.07 0.00 90 1011.7
20260902000107 12 225 0.0 1.6 0.00 1.07 0.00 90 1011.6
20260901235607 12 202 0.0 1.6 0.00 1.07 0.00 90 1011.7
20260901235107 12 225 0.0 0.0 0.00 1.07 0.00 90 1011.9
20260901234607 12 202 0.0 0.0 0.00 1.07 0.00 90 1012.0
20260901234107 12 202 0.0 1.6 0.00 1.07 0.00 90 1012.0
20260901233607 12 202 0.0 0.0 0.00 1.07 0.00 90 1011.9
20260901233107 12 202 0.0 0.0 0.00 1.07 0.00 90 1011.9
20260901232607 12 202 0.0 1.6 0.00 1.07 0.00 90 1012.0
20260901232107 12 202 0.0 3.2 0.00 1.07 0.00 90 1011.9
20260901231607 12 225 1.6 3.2 0.00 1.07 0.00 90 1011.9
20260901231107 12 202 1.6 3.2 0.00 1.07 0.00 90 1011.9
20260901230607 13 202 0.0 3.2 0.00 1.07 0.00 90 1012.0
20260901230107 13 202 0.0 1.6 0.00 1.07 0.00 90 1011.9
20260901225607 13 202 1.6 1.6 0.00 1.22 0.00 90 1011.8
20260901225107 13 247 0.0 1.6 0.00 1.22 0.00 90 1011.7
20260901224607 13 270 0.0 0.0 0.00 1.22 0.00 90 1011.6
20260901224107 13 270 0.0 3.2 0.00 1.22 0.00 89 1011.9
20260901223607 13 247 0.0 1.6 0.00 1.22 0.00 89 1011.8
20260901223107 13 247 0.0 1.6 0.00 1.22 0.00 89 1011.7
20260901222607 13 247 0.0 1.6 0.00 1.22 0.00 89 1011.8
20260901222107 13 247 0.0 1.6 0.00 1.22 0.00 89 1011.9
20260901221607 13 247 0.0 1.6 0.00 1.22 0.00 89 1011.8
20260901221107 13 225 0.0 3.2 0.00 1.22 0.00 89 1011.8
20260901220607 13 202 0.0 3.2 0.00 1.22 0.00 89 1011.7
20260901220107 13 225 0.0 3.2 0.00 1.22 0.00 89 1011.7
20260901215607 13 225 1.6 1.6 0.00 1.22 0.00 89 1011.7
20260901215107 13 180 1.6 1.6 0.00 1.22 0.00 89 1011.7
20260901214607 13 202 0.0 1.6 0.00 1.22 0.00 89 1011.7
20260901214107 13 202 0.0 1.6 0.00 1.22 0.00 88 1011.6
20260901213607 13 270 0.0 0.0 0.00 1.22 0.00 88 1011.7
20260901213107 13 247 0.0 3.2 0.00 1.22 0.00 88 1011.5
20260901212607 13 202 1.6 1.6 0.00 1.22 0.00 88 1011.6
20260901212107 13 202 0.0 1.6 0.00 1.22 0.00 88 1011.6
20260901211607 13 180 0.0 1.6 0.00 1.22 0.00 88 1011.5
20260901211107 13 225 0.0 0.0 0.00 1.22 0.00 88 1011.5
20260901210608 13 202 0.0 1.6 0.00 1.22 0.00 88 1011.5
20260901210107 13 225 0.0 0.0 0.00 1.22 0.00 88 1011.5
20260901205607 13 202 0.0 0.0 0.00 1.22 0.00 89 1011.4
20260901205108 13 202 0.0 0.0 0.00 1.22 0.00 89 1011.4
20260901204607 13 202 0.0 1.6 0.00 1.22 0.00 89 1011.5
20260901204108 13 202 1.6 1.6 0.00 1.22 0.00 89 1011.6
20260901203608 13 180 0.0 1.6 0.00 1.22 0.00 89 1011.6
20260901203108 13 180 0.0 1.6 0.00 1.22 0.00 88 1011.6
20260901202608 13 202 0.0 3.2 0.00 1.22 0.00 88 1011.4
20260901202108 13 202 0.0 1.6 0.00 1.22 0.00 88 1011.5
20260901201608 13 225 0.0 1.6 0.00 1.22 0.00 88 1011.5
20260901201108 13 225 1.6 3.2 0.00 1.22 0.00 88 1011.5
20260901200608 13 225 1.6 3.2 0.00 1.22 0.00 88 1011.5
20260901200108 13 247 1.6 1.6 0.00 1.22 0.00 88 1011.4
20260901195608 14 247 0.0 3.2 0.00 1.27 0.00 88 1011.3
20260901195108 14 225 1.6 3.2 0.00 1.27 0.00 88 1011.4
20260901194608 14 247 1.6 3.2 0.00 1.27 0.00 88 1011.2
20260901194108 14 270 1.6 1.6 0.00 1.27 0.00 88 1011.1
20260901193608 14 247 1.6 3.2 0.00 1.27 0.00 88 1011.2
20260901193108 14 202 0.0 3.2 0.00 1.27 0.00 88 1011.2
20260901192608 14 202 1.6 1.6 0.00 1.27 0.00 88 1011.2
20260901192108 14 180 0.0 1.6 0.00 1.27 0.00 88 1011.2
20260901191608 14 202 1.6 3.2 0.00 1.27 0.00 88 1011.1
20260901191108 14 180 0.0 1.6 0.00 1.27 0.00 88 1011.1
20260901190608 14 180 3.2 3.2 0.00 1.27 0.00 87 1011.1
20260901190108 15 202 0.0 0.0 0.05 1.60 0.00 87 1011.0
20260901185608 15 202 0.0 0.0 0.05 1.60 0.00 87 1011.0
20260901185108 15 202 0.0 0.0 0.05 1.60 0.00 87 1011.0
20260901184608 15 202 0.0 0.0 0.05 1.60 0.00 87 1011.0
20260901184108 15 202 0.0 1.6 0.05 1.60 0.00 87 1011.0
20260901183608 15 202 1.6 3.2 0.05 1.60 0.00 87 1011.0
20260901183108 15 202 1.6 3.2 0.05 1.60 0.00 87 1010.9
20260901182608 15 180 1.6 3.2 0.05 1.60 0.00 87 1011.0
20260901182108 15 180 1.6 6.4 0.05 1.60 0.00 87 1010.9
20260901181608 15 202 3.2 3.2 0.05 1.60 0.00 87 1010.9
20260901181108 15 202 3.2 3.2 0.05 1.60 0.00 87 1010.7
20260901180608 15 202 1.6 3.2 0.05 1.60 0.00 87 1010.6
20260901180108 15 202 0.0 4.8 0.00 1.55 0.00 87 1010.6
20260901175608 15 202 0.0 3.2 0.00 1.60 0.00 87 1010.5
20260901175108 15 225 0.0 3.2 0.00 1.60 0.00 87 1010.6
20260901174608 15 202 1.6 3.2 0.00 1.60 0.00 87 1010.7
20260901174108 15 202 1.6 3.2 0.00 1.60 0.00 87 1010.7
20260901173608 16 202 0.0 3.2 0.00 1.60 0.00 86 1010.7
20260901173108 16 225 0.0 1.6 0.00 1.60 0.00 86 1010.6
20260901172608 16 202 0.0 1.6 0.00 1.60 0.00 86 1010.6
20260901172108 16 202 0.0 0.0 0.00 1.60 0.00 86 1010.5
20260901171608 16 225 0.0 0.0 0.00 1.60 0.00 86 1010.6
20260901171108 16 225 0.0 1.6 0.00 1.60 0.00 86 1010.5
20260901170608 16 202 0.0 1.6 0.00 1.60 0.00 86 1010.5
20260901170108 16 202 0.0 1.6 0.00 1.60 0.00 86 1010.5
20260901165608 16 225 0.0 0.0 0.00 1.65 0.00 86 1010.5
20260901165108 16 202 0.0 1.6 0.00 1.65 0.00 86 1010.4
20260901164608 16 225 0.0 1.6 0.00 1.65 0.00 86 1010.5
20260901164108 16 202 0.0 0.0 0.10 1.65 0.00 86 1010.3
20260901163608 16 247 0.0 1.6 0.10 1.65 0.00 85 1010.4
20260901163108 16 247 0.0 3.2 0.10 1.65 0.00 85 1010.3
20260901162608 16 225 0.0 1.6 0.10 1.65 0.00 85 1010.4
20260901162108 16 202 1.6 1.6 0.10 1.65 0.00 86 1010.3
20260901161608 16 202 0.0 1.6 0.10 1.65 0.00 86 1010.3
20260901161108 17 247 0.0 1.6 0.10 1.65 0.00 85 1010.3
20260901160608 17 225 0.0 3.2 0.10 1.65 0.00 85 1010.4
20260901160108 17 247 0.0 1.6 0.10 1.65 0.00 84 1010.4
20260901155608 17 270 0.0 0.0 0.10 1.65 0.00 84 1010.3
20260901155108 17 270 0.0 3.2 0.10 1.65 0.00 84 1010.3
20260901154608 17 270 0.0 4.8 0.05 1.60 0.00 84 1010.3
20260901154108 18 247 0.0 0.0 0.00 1.55 0.00 84 1010.2
20260901153608 18 202 0.0 0.0 0.00 1.55 0.00 84 1010.1
20260901153108 18 202 0.0 0.0 0.00 1.55 0.00 84 1010.2
20260901152608 18 202 0.0 1.6 0.00 1.55 0.00 85 1010.1
20260901152108 17 225 0.0 3.2 0.00 1.55 0.00 85 1010.2
20260901151608 17 202 0.0 1.6 0.00 1.55 0.00 85 1010.0
20260901151108 17 225 1.6 3.2 0.00 1.55 0.00 84 1010.0
20260901150608 17 180 0.0 1.6 0.00 1.55 0.00 84 1010.0
20260901150108 17 270 0.0 3.2 0.00 1.55 0.00 84 1010.0
20260901145608 17 225 1.6 1.6 0.00 1.55 0.00 84 1010.0
20260901145108 17 225 0.0 3.2 0.00 1.55 0.00 84 1010.0
20260901144608 17 225 0.0 3.2 0.00 1.55 0.00 84 1010.0
20260901144108 17 247 0.0 3.2 0.00 1.55 0.00 84 1010.0
20260901143608 17 202 1.6 1.6 0.00 1.55 0.00 84 1009.9
20260901143108 17 270 0.0 3.2 0.00 1.55 0.00 84 1009.8
20260901142608 17 202 0.0 6.4 0.00 1.55 0.00 84 1009.9
20260901142108 17 247 1.6 3.2 0.00 1.55 0.00 84 1009.8
20260901141608 17 270 1.6 3.2 0.00 1.55 0.00 84 1009.8
20260901141108 17 270 0.0 3.2 0.00 1.55 0.00 84 1009.8
20260901140608 17 247 0.0 4.8 0.00 1.55 0.00 84 1009.8
20260901140108 18 225 4.8 4.8 0.15 1.55 0.00 84 1009.8
20260901135608 17 247 3.2 6.4 0.36 1.55 0.00 84 1009.6
20260901135108 17 270 3.2 3.2 0.36 1.55 0.00 84 1009.7
20260901134609 17 247 1.6 4.8 0.36 1.55 0.00 84 1009.9
20260901134109 17 202 1.6 3.2 0.36 1.55 0.00 83 1009.9
20260901133609 17 270 0.0 3.2 0.36 1.55 0.00 83 1010.1
20260901133109 17 270 1.6 8.0 0.36 1.55 0.00 83 1010.0
20260901132609 17 270 0.0 6.4 0.36 1.55 0.00 82 1010.0
20260901132109 17 247 0.0 3.2 0.36 1.55 0.00 81 1010.1
20260901131609 17 225 4.8 4.8 0.36 1.55 0.00 79 1010.1
20260901131109 18 112 3.2 4.8 0.36 1.55 0.00 78 1010.0
20260901130609 18 270 3.2 8.0 0.30 1.50 0.00 77 1009.9
20260901130109 20 247 8.0 11.3 0.05 1.22 0.00 75 1009.8
20260901125609 20 247 6.4 6.4 0.00 1.17 0.00 75 1009.4
20260901125109 20 292 4.8 6.4 0.00 1.17 0.00 76 1009.3
20260901124609 20 270 3.2 8.0 0.00 1.17 0.00 77 1009.3
20260901124109 20 247 6.4 8.0 0.00 1.17 0.00 78 1009.2
20260901123609 20 270 1.6 6.4 0.00 1.17 0.00 79 1009.3
20260901123109 20 135 1.6 6.4 0.00 1.17 0.00 79 1009.3
20260901122609 20 247 0.0 3.2 0.00 1.17 0.00 80 1009.2
20260901122109 20 270 1.6 6.4 0.00 1.17 0.00 80 1009.3
20260901121609 20 270 1.6 4.8 0.00 1.17 0.00 81 1009.3
20260901121109 20 270 0.0 8.0 0.00 1.17 0.00 81 1009.3
20260901120609 20 202 3.2 8.0 0.00 1.17 0.00 82 1009.3
20260901120109 19 292 1.6 3.2 0.00 1.17 0.00 83 1009.3
20260901115609 19 225 0.0 3.2 0.05 1.17 0.00 83 1009.3
20260901115109 19 225 0.0 3.2 0.05 1.17 0.00 83 1009.3
20260901114609 19 270 3.2 4.8 0.05 1.17 0.00 84 1009.2
20260901114109 18 270 1.6 6.4 0.05 1.17 0.00 84 1009.3
20260901113609 18 270 1.6 9.7 0.05 1.17 0.00 84 1009.2
20260901113109 18 270 1.6 3.2 0.05 1.17 0.00 84 1009.2
20260901112609 18 270 1.6 4.8 0.05 1.17 0.00 84 1009.3
20260901112109 18 247 0.0 1.6 0.05 1.17 0.00 83 1009.3
20260901111609 18 270 0.0 3.2 0.05 1.17 0.00 82 1009.3
20260901111109 19 247 0.0 3.2 0.05 1.17 0.00 81 1009.3
20260901110609 19 270 1.6 4.8 0.05 1.17 0.00 82 1009.3
20260901110109 20 247 3.2 6.4 0.00 1.12 0.00 83 1009.1
20260901105609 20 225 6.4 6.4 0.00 1.17 0.00 85 1009.1
20260901105109 19 247 3.2 9.7 0.00 1.17 0.00 85 1009.0
20260901104609 19 270 0.0 6.4 0.00 1.17 0.00 85 1008.9
20260901104109 18 225 0.0 6.4 0.00 1.17 0.00 86 1008.9
20260901103609 18 270 0.0 3.2 0.00 1.17 0.00 87 1009.0
20260901103109 18 180 3.2 4.8 0.00 1.17 0.00 88 1009.0
20260901102609 18 270 0.0 3.2 0.00 1.17 0.00 87 1009.0
20260901102109 18 247 0.0 3.2 0.00 1.17 0.00 88 1009.2
20260901101609 18 270 1.6 3.2 0.05 1.17 0.00 88 1009.1
20260901101109 17 247 1.6 4.8 0.10 1.17 0.00 88 1008.9
20260901100609 17 202 1.6 4.8 0.10 1.17 0.00 88 1009.0
20260901100109 17 202 1.6 3.2 0.10 1.17 0.00 88 1009.0
20260901095609 17 202 0.0 4.8 0.10 1.17 0.00 88 1009.1
20260901095109 16 225 1.6 3.2 0.10 1.17 0.00 88 1009.1
20260901094609 16 270 0.0 3.2 0.10 1.17 0.00 87 1009.1
20260901094109 16 202 0.0 3.2 0.10 1.17 0.00 87 1009.0
20260901093609 16 247 0.0 6.4 0.10 1.17 0.00 86 1009.0
20260901093109 16 202 0.0 3.2 0.10 1.17 0.00 86 1009.1
20260901092609 16 180 3.2 4.8 0.10 1.17 0.00 86 1009.1
20260901092109 16 202 1.6 3.2 0.05 1.12 0.00 86 1008.9
20260901091609 16 202 3.2 4.8 0.05 1.12 0.00 86 1008.9
20260901091109 16 180 0.0 4.8 0.00 1.07 0.00 86 1008.9
20260901090609 17 225 1.6 6.4 0.00 1.07 0.00 86 1008.8
20260901090109 16 225 1.6 3.2 0.00 1.07 0.00 86 1008.8
20260901085609 16 202 0.0 3.2 0.00 1.07 0.00 86 1008.8
20260901085109 17 202 1.6 3.2 0.00 1.07 0.00 86 1008.8
20260901084609 17 202 3.2 3.2 0.00 1.07 0.00 87 1008.7
20260901084109 16 247 3.2 3.2 0.00 1.07 0.00 87 1008.8
20260901083609 16 225 0.0 3.2 0.00 1.07 0.00 87 1008.8
20260901083109 16 202 3.2 3.2 0.00 1.07 0.00 87 1008.8
20260901082609 16 247 1.6 4.8 0.00 1.07 0.00 88 1008.7
20260901082109 16 225 1.6 6.4 0.00 1.07 0.00 87 1008.7
20260901081609 16 225 1.6 4.8 0.00 1.07 0.00 87 1008.7
20260901081109 16 247 0.0 4.8 0.00 1.07 0.00 87 1008.6
20260901080609 16 225 0.0 4.8 0.00 1.07 0.00 87 1008.6
20260901080109 16 225 3.2 4.8 0.00 1.07 0.00 88 1008.4
20260901075609 17 225 3.2 8.0 0.00 1.07 0.00 89 1008.3
20260901075109 17 225 3.2 3.2 0.00 1.07 0.00 89 1008.3
20260901074609 16 202 3.2 3.2 0.00 1.07 0.00 90 1008.3
20260901074109 16 247 0.0 3.2 0.00 1.07 0.00 90 1008.1
20260901073609 16 202 0.0 3.2 0.00 1.07 0.00 89 1008.2
20260901073109 16 247 0.0 4.8 0.00 1.07 0.00 90 1008.2
20260901072609 16 225 0.0 6.4 0.00 1.07 0.00 91 1008.1
20260901072109 16 225 6.4 8.0 0.00 1.07 0.00 91 1008.1
20260901071609 16 225 1.6 1.6 0.00 1.07 0.00 91 1007.9
20260901071109 15 270 0.0 3.2 0.00 1.07 0.00 91 1007.9
20260901070609 15 270 0.0 3.2 0.00 1.07 0.00 91 1007.8
20260901070109 15 270 0.0 4.8 0.00 1.07 0.00 91 1007.8
20260901065609 15 225 3.2 4.8 0.00 1.07 0.00 91 1007.8
20260901065109 15 225 0.0 3.2 0.00 1.07 0.00 91 1007.7
20260901064609 15 202 0.0 3.2 0.00 1.07 0.00 91 1007.6
20260901064110 15 247 0.0 3.2 0.00 1.07 0.00 91 1007.7
20260901063610 14 202 1.6 3.2 0.00 1.07 0.00 91 1007.5
20260901063110 14 270 3.2 3.2 0.00 1.07 0.00 91 1007.5
20260901062610 14 270 1.6 3.2 0.00 1.07 0.00 91 1007.4
20260901062110 14 202 1.6 3.2 0.00 1.07 0.00 91 1007.4
20260901061610 14 202 3.2 3.2 0.00 1.07 0.00 91 1007.3
20260901061110 13 270 3.2 3.2 0.00 1.07 0.00 91 1007.2
20260901060610 13 270 0.0 1.6 0.00 1.07 0.00 91 1007.2
20260901060110 13 135 0.0 3.2 0.00 1.07 0.00 91 1007.1
20260901055610 13 225 0.0 1.6 0.00 1.07 0.00 91 1007.1
20260901055110 13 202 0.0 3.2 0.00 1.07 0.00 91 1007.1
20260901054610 13 225 0.0 3.2 0.00 1.07 0.00 91 1007.0
20260901054110 13 157 1.6 3.2 0.05 1.07 0.00 91 1006.9
20260901053610 13 270 0.0 4.8 0.10 1.07 0.00 91 1006.8
20260901053110 13 270 0.0 3.2 0.15 1.07 0.00 91 1006.7
20260901052610 13 180 1.6 3.2 0.15 1.07 0.00 91 1006.6
20260901052110 13 225 0.0 3.2 0.15 1.07 0.00 91 1006.6
20260901051610 13 225 3.2 4.8 0.15 1.07 0.00 91 1006.6
20260901051110 13 247 0.0 6.4 0.15 1.07 0.00 91 1006.5
20260901050610 13 202 1.6 3.2 0.15 1.07 0.00 91 1006.6
20260901050110 13 225 3.2 3.2 0.15 1.07 0.00 91 1006.6
20260901045610 13 270 0.0 1.6 0.15 1.07 0.00 91 1006.6
20260901045110 13 247 0.0 3.2 0.15 1.07 0.00 91 1006.6
20260901044610 13 247 3.2 3.2 0.10 1.02 0.00 91 1006.5
20260901044110 13 270 0.0 3.2 0.10 1.02 0.00 91 1006.6
20260901043610 13 225 1.6 3.2 0.05 0.97 0.00 91 1006.5
20260901043110 13 225 1.6 3.2 0.00 0.91 0.00 91 1006.5
20260901042610 13 202 0.0 8.0 0.00 0.91 0.00 91 1006.4
20260901042110 13 202 3.2 4.8 0.00 0.91 0.00 91 1006.4
20260901041610 13 135 1.6 3.2 0.00 0.91 0.00 91 1006.4
20260901041110 13 157 0.0 3.2 0.00 0.91 0.00 91 1006.4
20260901040610 13 202 1.6 3.2 0.00 0.91 0.00 91 1006.3
20260901040110 13 202 3.2 6.4 0.00 0.91 0.00 91 1006.4
20260901035610 13 202 1.6 3.2 0.00 0.91 0.00 91 1006.4
20260901035110 13 202 1.6 3.2 0.00 0.91 0.00 91 1006.4
20260901034610 13 202 0.0 3.2 0.00 0.91 0.00 91 1006.4
20260901034110 13 202 1.6 3.2 0.00 0.91 0.00 91 1006.4
20260901033610 13 180 0.0 3.2 0.00 0.91 0.00 90 1006.3
20260901033110 13 180 0.0 3.2 0.00 0.91 0.00 90 1006.4
20260901032610 13 202 1.6 3.2 0.00 0.91 0.00 90 1006.3
20260901032110 13 202 0.0 3.2 0.00 0.91 0.00 90 1006.3
20260901031610 13 180 1.6 3.2 0.00 0.91 0.00 90 1006.3
20260901031110 13 180 1.6 3.2 0.00 0.91 0.00 90 1006.3
20260901030610 13 202 0.0 3.2 0.00 0.91 0.00 90 1006.2
20260901030110 13 180 3.2 4.8 0.00 0.91 0.00 90 1006.2
20260901025610 13 157 3.2 4.8 0.00 0.91 0.00 90 1006.2
20260901025110 13 180 3.2 4.8 0.00 0.91 0.00 90 1006.2
20260901024610 13 202 3.2 3.2 0.00 0.91 0.00 90 1006.1
20260901024110 13 180 3.2 3.2 0.00 0.91 0.00 90 1006.2
20260901023610 13 202 3.2 3.2 0.00 0.91 0.00 90 1006.3
20260901023110 13 202 1.6 3.2 0.05 0.91 0.00 90 1006.2
20260901022610 13 157 3.2 3.2 0.05 0.91 0.00 90 1006.2
20260901022110 13 180 1.6 3.2 0.10 0.91 0.00 90 1006.4